QPF
0.20 0.19 0.20 0.21 0.18 0.18 0.18 0.19 0.19 0.21 0.20 0.15 0.12 0.09 0.06 0.04 0.06 0.07 0.12 0.12 0.06 0.04 0.04 0.04 0.05 0.05 0.04 0.03 0.02 0.03 0.02 0.02 0.02 0.02 0.02 0.03 0.02 0.01 0.00 0.00 0.00 0.00 0.00
0.20 0.21 0.24 0.24 0.21 0.19 0.18 0.20 0.21 0.24 0.21 0.16 0.13 0.12 0.09 0.05 0.03 0.03 0.10 0.15 0.08 0.04 0.03 0.04 0.05 0.06 0.07 0.05 0.03 0.02 0.02 0.02 0.02 0.02 0.01 0.02 0.02 0.01 0.00 0.00 0.00 0.00 0.00
0.14 0.15 0.19 0.23 0.22 0.21 0.18 0.17 0.18 0.20 0.15 0.13 0.12 0.12 0.11 0.10 0.07 0.05 0.06 0.11 0.11 0.07 0.04 0.04 0.05 0.06 0.08 0.08 0.05 0.03 0.03 0.03 0.03 0.02 0.01 0.01 0.01 0.01 0.00 0.00 0.00 0.00 0.00
0.13 0.14 0.15 0.17 0.18 0.17 0.17 0.17 0.18 0.18 0.15 0.14 0.11 0.10 0.11 0.11 0.12 0.11 0.08 0.07 0.08 0.09 0.07 0.05 0.04 0.05 0.06 0.07 0.08 0.06 0.04 0.03 0.03 0.02 0.02 0.01 0.01 0.01 0.01 0.00 0.00 0.00 0.00
0.13 0.15 0.14 0.17 0.17 0.16 0.15 0.14 0.19 0.19 0.18 0.19 0.17 0.15 0.12 0.12 0.11 0.09 0.08 0.08 0.08 0.11 0.12 0.09 0.06 0.04 0.05 0.06 0.06 0.08 0.07 0.04 0.03 0.02 0.02 0.01 0.01 0.01 0.01 0.00 0.00 0.00 0.00
0.08 0.08 0.08 0.10 0.11 0.11 0.12 0.13 0.15 0.17 0.18 0.20 0.20 0.20 0.17 0.13 0.11 0.09 0.07 0.09 0.10 0.08 0.10 0.12 0.13 0.05 0.04 0.05 0.05 0.06 0.07 0.06 0.05 0.03 0.02 0.02 0.02 0.01 0.01 0.00 0.00 0.00 0.00
0.05 0.05 0.05 0.06 0.07 0.09 0.11 0.12 0.12 0.13 0.14 0.17 0.19 0.19 0.17 0.15 0.11 0.08 0.07 0.07 0.07 0.08 0.10 0.12 0.15 0.12 0.06 0.04 0.04 0.05 0.06 0.07 0.06 0.06 0.04 0.03 0.02 0.01 0.01 0.00 0.00 0.00 0.00
0.02 0.03 0.04 0.05 0.05 0.07 0.08 0.10 0.11 0.09 0.11 0.17 0.18 0.18 0.17 0.15 0.13 0.08 0.09 0.07 0.08 0.11 0.11 0.12 0.13 0.14 0.11 0.07 0.04 0.04 0.06 0.07 0.07 0.06 0.05 0.03 0.02 0.01 0.01 0.00 0.00 0.00 0.00
0.02 0.02 0.02 0.02 0.03 0.03 0.05 0.07 0.08 0.08 0.08 0.11 0.14 0.17 0.15 0.13 0.13 0.13 0.12 0.09 0.11 0.13 0.12 0.11 0.12 0.11 0.11 0.13 0.10 0.05 0.04 0.05 0.08 0.07 0.06 0.04 0.03 0.02 0.01 0.00 0.00 0.00 0.00
0.02 0.02 0.03 0.03 0.03 0.03 0.04 0.04 0.06 0.07 0.07 0.07 0.10 0.11 0.12 0.13 0.12 0.10 0.10 0.12 0.14 0.14 0.11 0.11 0.13 0.16 0.15 0.14 0.13 0.08 0.05 0.04 0.05 0.08 0.08 0.07 0.05 0.04 0.02 0.01 0.00 0.00 0.00
0.01 0.01 0.02 0.02 0.02 0.02 0.03 0.04 0.05 0.06 0.06 0.06 0.07 0.10 0.11 0.11 0.10 0.09 0.08 0.10 0.13 0.12 0.13 0.13 0.14 0.17 0.20 0.21 0.19 0.14 0.12 0.07 0.04 0.06 0.07 0.06 0.07 0.06 0.04 0.02 0.01 0.01 0.00
0.00 0.01 0.01 0.02 0.02 0.02 0.02 0.03 0.04 0.04 0.06 0.07 0.08 0.09 0.11 0.10 0.09 0.09 0.08 0.10 0.11 0.10 0.13 0.14 0.15 0.15 0.17 0.20 0.18 0.17 0.19 0.13 0.08 0.06 0.06 0.06 0.07 0.08 0.07 0.05 0.04 0.02 0.01
0.00 0.01 0.01 0.01 0.01 0.02 0.02 0.02 0.03 0.03 0.05 0.06 0.07 0.07 0.07 0.07 0.09 0.09 0.08 0.08 0.10 0.11 0.13 0.13 0.14 0.15 0.13 0.17 0.18 0.20 0.18 0.14 0.09 0.07 0.06 0.06 0.06 0.07 0.08 0.06 0.05 0.04 0.03
0.00 0.00 0.00 0.01 0.01 0.01 0.01 0.02 0.02 0.02 0.03 0.05 0.05 0.07 0.06 0.05 0.07 0.08 0.07 0.07 0.09 0.11 0.12 0.12 0.11 0.14 0.13 0.16 0.18 0.20 0.15 0.14 0.09 0.07 0.05 0.04 0.04 0.05 0.05 0.06 0.05 0.04 0.04
0.00 0.00 0.00 0.01 0.01 0.01 0.01 0.02 0.02 0.02 0.03 0.03 0.03 0.05 0.05 0.05 0.06 0.06 0.06 0.07 0.07 0.08 0.11 0.14 0.14 0.13 0.13 0.15 0.22 0.22 0.17 0.13 0.10 0.07 0.06 0.05 0.04 0.04 0.03 0.03 0.03 0.02 0.02
0.01 0.01 0.01 0.01 0.01 0.01 0.02 0.03 0.02 0.02 0.03 0.03 0.03 0.03 0.05 0.05 0.06 0.05 0.05 0.05 0.06 0.06 0.08 0.11 0.12 0.12 0.13 0.11 0.16 0.19 0.19 0.18 0.13 0.09 0.07 0.06 0.05 0.04 0.04 0.03 0.03 0.02 0.01
0.01 0.01 0.01 0.01 0.01 0.01 0.02 0.03 0.02 0.02 0.03 0.03 0.03 0.03 0.04 0.05 0.07 0.06 0.05 0.05 0.05 0.06 0.06 0.07 0.09 0.11 0.13 0.14 0.15 0.15 0.18 0.23 0.16 0.11 0.07 0.06 0.06 0.04 0.03 0.03 0.03 0.03 0.03
0.01 0.01 0.01 0.01 0.01 0.02 0.02 0.03 0.02 0.03 0.03 0.04 0.04 0.04 0.05 0.05 0.08 0.07 0.06 0.05 0.04 0.05 0.06 0.06 0.07 0.10 0.11 0.14 0.16 0.17 0.16 0.20 0.20 0.15 0.09 0.07 0.06 0.05 0.04 0.03 0.04 0.03 0.03
0.01 0.02 0.02 0.02 0.02 0.02 0.03 0.03 0.04 0.04 0.04 0.04 0.05 0.06 0.06 0.06 0.07 0.07 0.07 0.05 0.05 0.04 0.06 0.06 0.07 0.09 0.12 0.13 0.17 0.19 0.18 0.20 0.20 0.20 0.16 0.10 0.07 0.07 0.06 0.05 0.04 0.04 0.03
0.02 0.02 0.02 0.02 0.02 0.02 0.02 0.03 0.04 0.04 0.05 0.06 0.06 0.06 0.05 0.06 0.07 0.08 0.07 0.07 0.06 0.06 0.06 0.06 0.08 0.09 0.12 0.15 0.18 0.21 0.23 0.24 0.20 0.18 0.18 0.14 0.09 0.07 0.07 0.07 0.06 0.05 0.04
0.01 0.01 0.02 0.02 0.02 0.02 0.02 0.02 0.02 0.03 0.04 0.05 0.06 0.06 0.06 0.05 0.04 0.05 0.05 0.07 0.07 0.08 0.08 0.08 0.08 0.10 0.12 0.17 0.20 0.20 0.22 0.24 0.22 0.19 0.18 0.14 0.10 0.08 0.06 0.06 0.06 0.05 0.05
0.02 0.02 0.02 0.02 0.03 0.02 0.00 0.00 0.00 0.01 0.02 0.04 0.06 0.07 0.06 0.04 0.03 0.02 0.02 0.03 0.05 0.06 0.07 0.09 0.10 0.10 0.12 0.14 0.17 0.21 0.22 0.21 0.20 0.19 0.20 0.18 0.13 0.10 0.08 0.06 0.04 0.03 0.04
0.02 0.02 0.03 0.03 0.04 0.04 0.00 0.00 0.00 0.00 0.01 0.03 0.06 0.08 0.06 0.04 0.06 0.05 0.04 0.02 0.02 0.03 0.04 0.05 0.08 0.09 0.11 0.13 0.16 0.18 0.23 0.25 0.22 0.20 0.20 0.21 0.20 0.15 0.10 0.08 0.07 0.06 0.04
0.02 0.03 0.03 0.03 0.05 0.04 0.00 0.00 0.00 0.00 0.02 0.04 0.06 0.08 0.09 0.09 0.07 0.07 0.06 0.06 0.05 0.04 0.03 0.02 0.05 0.08 0.11 0.14 0.15 0.15 0.18 0.24 0.28 0.29 0.26 0.23 0.21 0.18 0.13 0.08 0.06 0.06 0.05
0.02 0.03 0.03 0.03 0.05 0.06 0.02 0.00 0.00 0.02 0.05 0.08 0.09 0.08 0.09 0.10 0.06 0.03 0.05 0.07 0.07 0.06 0.03 0.02 0.02 0.04 0.06 0.10 0.14 0.18 0.18 0.21 0.24 0.29 0.30 0.26 0.24 0.22 0.17 0.11 0.08 0.06 0.05
0.02 0.02 0.02 0.03 0.04 0.06 0.03 0.00 0.00 0.02 0.05 0.08 0.11 0.11 0.07 0.07 0.06 0.03 0.06 0.10 0.10 0.09 0.07 0.05 0.03 0.02 0.03 0.05 0.09 0.15 0.19 0.18 0.21 0.25 0.26 0.23 0.22 0.23 0.21 0.14 0.10 0.07 0.04
MSLP
1015.36 1015.63 1015.80 1015.88 1015.90 1015.91 1015.93 1015.99 1016.08 1016.18 1016.25 1016.29 1016.26 1016.18 1016.07 1015.97 1015.90 1015.91 1016.02 1016.22 1016.50 1016.83 1017.19 1017.55 1017.90 1018.23 1018.55 1018.87 1019.21 1019.55 1019.91 1020.29 1020.68 1021.07 1021.46 1021.85 1022.25 1022.64 1023.04 1023.42 1023.80 1024.15 1024.47
1015.44 1015.71 1015.90 1015.99 1016.02 1016.02 1016.02 1016.05 1016.11 1016.18 1016.24 1016.28 1016.26 1016.20 1016.10 1015.98 1015.88 1015.84 1015.86 1015.98 1016.17 1016.45 1016.77 1017.13 1017.51 1017.89 1018.26 1018.63 1018.98 1019.34 1019.69 1020.05 1020.42 1020.79 1021.18 1021.59 1022.02 1022.45 1022.89 1023.32 1023.73 1024.11 1024.45
1015.41 1015.70 1015.90 1016.02 1016.08 1016.09 1016.08 1016.09 1016.12 1016.17 1016.22 1016.25 1016.24 1016.19 1016.09 1015.95 1015.81 1015.69 1015.64 1015.65 1015.76 1015.97 1016.25 1016.61 1017.01 1017.43 1017.85 1018.27 1018.66 1019.04 1019.39 1019.74 1020.09 1020.45 1020.84 1021.27 1021.72 1022.19 1022.67 1023.14 1023.59 1024.00 1024.37
1015.27 1015.57 1015.80 1015.96 1016.04 1016.07 1016.08 1016.08 1016.09 1016.11 1016.15 1016.17 1016.16 1016.10 1015.99 1015.83 1015.65 1015.47 1015.32 1015.25 1015.26 1015.39 1015.63 1015.96 1016.37 1016.83 1017.30 1017.77 1018.21 1018.61 1018.98 1019.33 1019.67 1020.03 1020.43 1020.86 1021.34 1021.84 1022.36 1022.88 1023.37 1023.82 1024.22
1015.04 1015.35 1015.61 1015.80 1015.93 1015.99 1016.00 1016.00 1015.99 1015.99 1016.00 1016.00 1015.98 1015.92 1015.80 1015.63 1015.40 1015.16 1014.94 1014.78 1014.70 1014.75 1014.92 1015.22 1015.63 1016.10 1016.61 1017.11 1017.60 1018.03 1018.43 1018.80 1019.15 1019.52 1019.93 1020.38 1020.88 1021.42 1021.97 1022.53 1023.06 1023.55 1023.99
1014.79 1015.09 1015.37 1015.60 1015.77 1015.85 1015.88 1015.87 1015.84 1015.82 1015.80 1015.78 1015.74 1015.67 1015.55 1015.36 1015.11 1014.83 1014.55 1014.30 1014.15 1014.11 1014.21 1014.45 1014.82 1015.28 1015.80 1016.33 1016.85 1017.32 1017.75 1018.15 1018.53 1018.93 1019.35 1019.82 1020.35 1020.91 1021.50 1022.09 1022.66 1023.19 1023.67
1014.58 1014.87 1015.16 1015.42 1015.60 1015.71 1015.75 1015.73 1015.68 1015.63 1015.58 1015.53 1015.48 1015.41 1015.28 1015.10 1014.84 1014.54 1014.21 1013.91 1013.67 1013.55 1013.56 1013.73 1014.03 1014.45 1014.95 1015.48 1016.00 1016.51 1016.97 1017.41 1017.83 1018.25 1018.71 1019.21 1019.75 1020.34 1020.95 1021.56 1022.16 1022.72 1023.24
1014.48 1014.74 1015.03 1015.29 1015.49 1015.61 1015.65 1015.62 1015.55 1015.47 1015.39 1015.32 1015.26 1015.19 1015.07 1014.90 1014.66 1014.35 1014.00 1013.66 1013.36 1013.15 1013.07 1013.13 1013.34 1013.68 1014.12 1014.61 1015.13 1015.64 1016.13 1016.60 1017.06 1017.52 1018.01 1018.54 1019.10 1019.70 1020.32 1020.95 1021.56 1022.15 1022.70
1014.52 1014.74 1014.99 1015.24 1015.44 1015.56 1015.60 1015.56 1015.47 1015.37 1015.27 1015.19 1015.12 1015.06 1014.97 1014.82 1014.61 1014.32 1013.97 1013.60 1013.24 1012.96 1012.77 1012.72 1012.81 1013.04 1013.39 1013.81 1014.28 1014.77 1015.27 1015.76 1016.25 1016.76 1017.28 1017.83 1018.41 1019.02 1019.64 1020.26 1020.88 1021.48 1022.05
1014.68 1014.84 1015.05 1015.27 1015.45 1015.56 1015.59 1015.55 1015.45 1015.33 1015.22 1015.13 1015.07 1015.03 1014.97 1014.86 1014.69 1014.43 1014.10 1013.72 1013.33 1012.97 1012.69 1012.52 1012.48 1012.58 1012.80 1013.12 1013.52 1013.96 1014.44 1014.93 1015.44 1015.97 1016.52 1017.09 1017.67 1018.28 1018.89 1019.51 1020.12 1020.72 1021.30
1014.89 1014.98 1015.14 1015.32 1015.47 1015.57 1015.59 1015.54 1015.44 1015.32 1015.20 1015.12 1015.08 1015.06 1015.03 1014.97 1014.85 1014.64 1014.34 1013.97 1013.56 1013.15 1012.79 1012.51 1012.34 1012.29 1012.37 1012.57 1012.86 1013.23 1013.66 1014.13 1014.64 1015.17 1015.73 1016.30 1016.89 1017.49 1018.09 1018.69 1019.29 1019.89 1020.48
1015.07 1015.10 1015.20 1015.33 1015.45 1015.52 1015.54 1015.49 1015.39 1015.27 1015.17 1015.10 1015.07 1015.07 1015.08 1015.07 1014.99 1014.83 1014.58 1014.24 1013.83 1013.40 1012.98 1012.61 1012.32 1012.15 1012.09 1012.15 1012.32 1012.59 1012.95 1013.37 1013.85 1014.36 1014.91 1015.49 1016.07 1016.66 1017.25 1017.84 1018.43 1019.02 1019.61
1015.17 1015.13 1015.17 1015.25 1015.34 1015.39 1015.39 1015.34 1015.25 1015.15 1015.05 1015.00 1014.98 1015.00 1015.04 1015.06 1015.03 1014.92 1014.72 1014.42 1014.04 1013.61 1013.17 1012.74 1012.37 1012.09 1011.91 1011.84 1011.89 1012.05 1012.30 1012.65 1013.07 1013.55 1014.07 1014.62 1015.20 1015.78 1016.36 1016.94 1017.53 1018.12 1018.72
1015.14 1015.05 1015.04 1015.07 1015.11 1015.14 1015.13 1015.07 1014.99 1014.89 1014.81 1014.76 1014.75 1014.77 1014.82 1014.86 1014.87 1014.80 1014.66 1014.41 1014.09 1013.69 1013.26 1012.83 1012.42 1012.06 1011.79 1011.61 1011.54 1011.57 1011.72 1011.96 1012.30 1012.72 1013.20 1013.72 1014.27 1014.84 1015.42 1016.01 1016.60 1017.20 1017.82
1015.00 1014.87 1014.81 1014.79 1014.79 1014.79 1014.76 1014.70 1014.61 1014.52 1014.43 1014.37 1014.35 1014.37 1014.41 1014.45 1014.47 1014.45 1014.35 1014.17 1013.91 1013.58 1013.20 1012.80 1012.39 1012.01 1011.68 1011.41 1011.24 1011.16 1011.18 1011.32 1011.55 1011.88 1012.29 1012.77 1013.29 1013.85 1014.44 1015.03 1015.65 1016.27 1016.92
1014.79 1014.62 1014.52 1014.46 1014.42 1014.38 1014.33 1014.25 1014.15 1014.04 1013.94 1013.86 1013.81 1013.80 1013.81 1013.84 1013.86 1013.85 1013.79 1013.68 1013.50 1013.26 1012.96 1012.62 1012.26 1011.90 1011.55 1011.23 1010.98 1010.79 1010.70 1010.71 1010.83 1011.05 1011.38 1011.79 1012.28 1012.82 1013.40 1014.02 1014.66 1015.32 1016.00
1014.55 1014.37 1014.23 1014.14 1014.06 1013.99 1013.90 1013.80 1013.68 1013.54 1013.41 1013.29 1013.20 1013.13 1013.10 1013.08 1013.08 1013.07 1013.04 1012.98 1012.88 1012.74 1012.54 1012.31 1012.03 1011.72 1011.39 1011.06 1010.74 1010.47 1010.27 1010.15 1010.14 1010.25 1010.46 1010.80 1011.23 1011.74 1012.33 1012.96 1013.64 1014.34 1015.05
1014.35 1014.15 1014.00 1013.87 1013.76 1013.65 1013.53 1013.40 1013.24 1013.07 1012.90 1012.73 1012.58 1012.45 1012.35 1012.28 1012.23 1012.21 1012.19 1012.17 1012.14 1012.09 1012.01 1011.88 1011.70 1011.47 1011.19 1010.87 1010.53 1010.19 1009.89 1009.65 1009.50 1009.48 1009.58 1009.81 1010.17 1010.64 1011.21 1011.87 1012.57 1013.31 1014.07
1014.19 1013.99 1013.83 1013.68 1013.54 1013.40 1013.25 1013.08 1012.89 1012.68 1012.46 1012.24 1012.03 1011.83 1011.66 1011.52 1011.42 1011.36 1011.33 1011.34 1011.36 1011.39 1011.41 1011.39 1011.32 1011.18 1010.97 1010.68 1010.33 1009.94 1009.55 1009.20 1008.92 1008.76 1008.73 1008.85 1009.12 1009.54 1010.09 1010.74 1011.47 1012.25 1013.05
1014.06 1013.87 1013.70 1013.55 1013.39 1013.23 1013.05 1012.85 1012.63 1012.38 1012.12 1011.86 1011.59 1011.33 1011.09 1010.88 1010.72 1010.61 1010.56 1010.56 1010.61 1010.70 1010.80 1010.87 1010.90 1010.86 1010.71 1010.47 1010.12 1009.71 1009.25 1008.80 1008.41 1008.11 1007.95 1007.95 1008.12 1008.47 1008.98 1009.62 1010.37 1011.18 1012.02
1013.93 1013.75 1013.60 1013.44 1013.27 1013.10 1012.90 1012.68 1012.43 1012.16 1011.87 1011.57 1011.25 1010.94 1010.65 1010.38 1010.16 1010.00 1009.91 1009.90 1009.96 1010.07 1010.22 1010.37 1010.47 1010.51 1010.43 1010.23 1009.91 1009.48 1008.98 1008.45 1007.94 1007.52 1007.24 1007.12 1007.20 1007.47 1007.93 1008.55 1009.30 1010.13 1011.01
1013.75 1013.60 1013.45 1013.30 1013.13 1012.95 1012.74 1012.51 1012.25 1011.97 1011.67 1011.34 1011.01 1010.67 1010.34 1010.03 1009.76 1009.55 1009.42 1009.37 1009.41 1009.53 1009.70 1009.88 1010.04 1010.13 1010.11 1009.96 1009.67 1009.24 1008.71 1008.12 1007.54 1007.02 1006.63 1006.40 1006.38 1006.58 1006.98 1007.57 1008.32 1009.17 1010.08
1013.50 1013.37 1013.23 1013.09 1012.94 1012.75 1012.54 1012.31 1012.05 1011.77 1011.47 1011.15 1010.81 1010.46 1010.12 1009.78 1009.48 1009.23 1009.05 1008.97 1008.98 1009.07 1009.23 1009.43 1009.61 1009.74 1009.76 1009.65 1009.39 1008.97 1008.44 1007.82 1007.19 1006.60 1006.12 1005.81 1005.71 1005.83 1006.18 1006.74 1007.47 1008.33 1009.26
1013.18 1013.06 1012.94 1012.82 1012.66 1012.49 1012.28 1012.05 1011.80 1011.53 1011.24 1010.94 1010.62 1010.29 1009.94 1009.60 1009.28 1009.01 1008.79 1008.66 1008.63 1008.68 1008.81 1008.99 1009.18 1009.32 1009.37 1009.29 1009.06 1008.68 1008.16 1007.54 1006.89 1006.26 1005.74 1005.36 1005.20 1005.26 1005.56 1006.08 1006.80 1007.66 1008.61
1012.82 1012.71 1012.60 1012.48 1012.34 1012.17 1011.97 1011.75 1011.51 1011.26 1011.00 1010.72 1010.43 1010.12 1009.79 1009.46 1009.13 1008.84 1008.59 1008.42 1008.33 1008.34 1008.43 1008.57 1008.74 1008.87 1008.94 1008.89 1008.69 1008.35 1007.87 1007.29 1006.65 1006.02 1005.48 1005.07 1004.86 1004.88 1005.14 1005.63 1006.32 1007.16 1008.11
1012.46 1012.36 1012.26 1012.15 1012.01 1011.84 1011.65 1011.44 1011.22 1010.98 1010.74 1010.49 1010.22 1009.94 1009.64 1009.32 1009.00 1008.69 1008.42 1008.21 1008.07 1008.03 1008.06 1008.16 1008.29 1008.41 1008.48 1008.45 1008.30 1008.01 1007.59 1007.06 1006.46 1005.87 1005.34 1004.94 1004.71 1004.70 1004.92 1005.37 1006.03 1006.84 1007.77
Thickness
5737 5737 5735 5734 5734 5735 5735 5735 5736 5736 5736 5737 5738 5740 5741 5741 5741 5741 5739 5738 5739 5738 5738 5736 5734 5732 5731 5730 5730 5729 5729 5728 5728 5727 5726 5726 5725 5725 5724 5723 5722 5721 5721
5732 5731 5731 5730 5730 5730 5731 5731 5731 5731 5732 5733 5735 5736 5737 5737 5737 5737 5736 5736 5736 5736 5737 5735 5734 5732 5731 5730 5729 5729 5729 5728 5728 5727 5726 5726 5725 5725 5724 5723 5722 5721 5720
5726 5726 5726 5726 5726 5726 5727 5727 5727 5727 5727 5729 5730 5732 5733 5734 5734 5734 5734 5734 5733 5733 5735 5734 5733 5732 5731 5730 5729 5729 5729 5728 5728 5727 5726 5726 5725 5725 5724 5723 5722 5721 5720
5720 5720 5720 5721 5721 5721 5722 5722 5722 5721 5722 5723 5725 5727 5729 5730 5732 5731 5731 5732 5733 5732 5732 5733 5732 5731 5730 5730 5729 5729 5728 5728 5728 5727 5727 5726 5725 5725 5724 5723 5722 5722 5721
5715 5714 5714 5716 5716 5716 5717 5717 5717 5716 5715 5717 5719 5722 5725 5727 5728 5729 5730 5730 5731 5730 5730 5730 5731 5731 5730 5730 5729 5729 5728 5728 5728 5728 5727 5726 5726 5725 5724 5724 5723 5722 5721
5709 5709 5710 5710 5711 5711 5711 5711 5711 5712 5712 5712 5714 5717 5720 5723 5725 5726 5728 5729 5729 5729 5728 5729 5729 5729 5729 5730 5730 5729 5729 5728 5728 5728 5728 5727 5726 5726 5725 5724 5723 5722 5722
5704 5703 5704 5704 5705 5704 5705 5706 5705 5705 5706 5709 5707 5708 5713 5719 5721 5724 5725 5726 5727 5727 5728 5728 5728 5728 5728 5728 5729 5729 5729 5729 5729 5728 5728 5728 5727 5726 5725 5725 5724 5723 5722
5698 5699 5697 5697 5698 5697 5698 5699 5698 5698 5700 5703 5700 5698 5699 5705 5713 5721 5721 5722 5724 5725 5725 5726 5727 5727 5728 5728 5729 5729 5729 5730 5730 5729 5728 5728 5728 5727 5726 5725 5724 5724 5723
5693 5692 5691 5690 5690 5690 5690 5691 5691 5691 5690 5694 5696 5692 5689 5692 5700 5710 5716 5719 5721 5721 5722 5723 5724 5725 5726 5727 5728 5729 5729 5730 5730 5730 5729 5728 5728 5727 5727 5726 5725 5724 5723
5688 5687 5685 5684 5683 5682 5683 5683 5685 5684 5684 5684 5688 5690 5690 5691 5688 5694 5704 5711 5715 5716 5718 5721 5723 5724 5725 5726 5727 5729 5729 5729 5730 5730 5729 5729 5728 5727 5727 5726 5725 5724 5724
5684 5683 5681 5679 5676 5675 5675 5675 5675 5676 5676 5675 5677 5679 5682 5684 5685 5684 5687 5696 5703 5709 5713 5716 5719 5722 5723 5723 5724 5726 5727 5728 5728 5729 5729 5728 5728 5727 5727 5726 5725 5724 5724
5677 5677 5675 5672 5670 5668 5667 5667 5667 5667 5668 5668 5668 5670 5671 5673 5675 5678 5679 5684 5689 5698 5705 5710 5713 5716 5718 5720 5721 5723 5724 5725 5726 5727 5728 5728 5727 5727 5726 5725 5725 5724 5724
5668 5667 5666 5663 5661 5660 5659 5660 5659 5659 5659 5660 5660 5661 5664 5667 5670 5672 5672 5675 5680 5688 5695 5700 5706 5709 5713 5716 5718 5720 5722 5722 5722 5724 5725 5726 5726 5726 5725 5724 5724 5724 5724
5661 5660 5658 5656 5655 5653 5653 5652 5651 5651 5652 5653 5653 5654 5655 5659 5662 5665 5665 5666 5668 5675 5682 5689 5697 5703 5707 5711 5714 5715 5718 5719 5720 5722 5723 5724 5725 5724 5724 5724 5724 5723 5723
5655 5654 5651 5650 5648 5647 5646 5644 5643 5643 5643 5644 5645 5647 5648 5650 5654 5656 5659 5660 5659 5661 5669 5679 5686 5694 5699 5704 5708 5709 5713 5715 5717 5719 5721 5722 5723 5723 5723 5723 5723 5723 5723
5649 5647 5645 5643 5642 5640 5638 5637 5635 5635 5635 5635 5636 5637 5638 5641 5644 5647 5649 5652 5655 5656 5659 5669 5676 5683 5690 5696 5700 5703 5707 5711 5714 5716 5717 5719 5720 5721 5721 5721 5721 5722 5722
5643 5641 5639 5637 5635 5633 5632 5629 5628 5627 5626 5626 5627 5628 5630 5632 5633 5635 5639 5642 5645 5648 5650 5659 5667 5674 5679 5685 5691 5695 5700 5704 5707 5711 5713 5715 5717 5718 5719 5719 5720 5720 5720
5639 5636 5634 5631 5629 5627 5625 5622 5620 5619 5618 5617 5617 5618 5620 5622 5623 5625 5627 5630 5634 5639 5642 5647 5654 5662 5669 5676 5682 5687 5693 5698 5702 5706 5709 5711 5713 5715 5716 5717 5718 5718 5719
5634 5631 5628 5625 5622 5620 5618 5615 5613 5611 5610 5609 5609 5608 5610 5611 5612 5614 5617 5620 5624 5630 5634 5638 5645 5652 5659 5667 5672 5679 5686 5691 5696 5701 5704 5706 5709 5711 5712 5714 5715 5716 5716
5629 5626 5623 5620 5617 5614 5612 5609 5606 5603 5602 5601 5600 5600 5601 5603 5604 5605 5608 5611 5614 5618 5622 5628 5634 5642 5649 5657 5662 5667 5674 5681 5687 5693 5698 5701 5703 5705 5708 5709 5711 5713 5713
5626 5622 5618 5615 5612 5609 5606 5600 5596 5595 5593 5592 5592 5592 5593 5595 5597 5598 5601 5603 5605 5608 5612 5617 5624 5631 5639 5645 5651 5658 5663 5671 5678 5685 5689 5693 5696 5698 5701 5703 5706 5709 5710
5621 5617 5613 5610 5606 5604 5598 5592 5588 5586 5584 5583 5583 5584 5586 5588 5590 5592 5593 5595 5597 5599 5603 5608 5614 5621 5629 5636 5643 5648 5654 5660 5667 5677 5680 5684 5689 5693 5696 5699 5702 5704 5706
5618 5613 5610 5606 5601 5597 5592 5587 5582 5578 5578 5577 5577 5577 5580 5584 5584 5586 5587 5589 5591 5594 5597 5601 5607 5613 5621 5629 5634 5639 5645 5651 5659 5668 5672 5675 5681 5685 5690 5694 5696 5698 5700
5615 5611 5607 5604 5599 5594 5588 5583 5578 5575 5574 5573 5573 5573 5574 5575 5576 5577 5579 5582 5585 5589 5592 5596 5603 5609 5614 5620 5627 5632 5638 5644 5652 5658 5664 5667 5672 5676 5681 5685 5688 5691 5693
5613 5610 5606 5602 5597 5592 5585 5579 5573 5572 5571 5570 5570 5570 5570 5570 5569 5570 5571 5574 5578 5582 5586 5592 5598 5603 5608 5613 5619 5624 5630 5635 5641 5649 5656 5660 5664 5666 5670 5674 5678 5681 5684
5612 5609 5605 5601 5596 5591 5584 5577 5570 5569 5568 5566 5566 5566 5565 5564 5562 5563 5565 5568 5570 5574 5579 5585 5590 5595 5601 5607 5612 5618 5624 5628 5634 5639 5648 5652 5656 5658 5659 5663 5667 5671 5674